Regional Weather Roundup
Issued by NWS Newport/Morehead, NC

Current Version | Previous Version | Graphics & Text | Print | Product List | Glossary Off
Versions: 1 2 3 4 5 6 7 8 9 10 11 12 13 14 15 16 17 18 19 20 21 22 23 24 25 26 27 28 29 30 31 32 33 34 35 36 37 38 39 40 41 42 43 44 45 46 47 48 49 50

000
ASUS42 KMHX 080713
RWRMHX
WEATHER ROUNDUP FOR EASTERN NORTH CAROLINA
NATIONAL WEATHER SERVICE NEWPORT/MOREHEAD CITY NC
200 AM EST MON FEB 08 2016

NOTE: "FAIR" INDICATES FEW OR NO CLOUDS BELOW 12,000 FEET
WITH NO SIGNIFICANT WEATHER AND/OR OBSTRUCTIONS TO VISIBILITY

NCZ015>017-031-032-045>047-102-103-080800-
NORTH COAST

CITY           SKY/WX    TMP DP  RH WIND       PRES   REMARKS
EDENTON        CLOUDY    41  30  65 NW18G24   29.67R
ELIZABETH CITY CLOUDY    41  34  76 NW21G26   29.63R
KITTY HAWK     CLOUDY    40  37  89 NW14G28   29.55R FOG
MANTEO         CLOUDY    40  38  92 N17G33    29.57R

$$

NCZ045>047-081-094-103-104-080800-
CENTRAL COAST

CITY           SKY/WX    TMP DP  RH WIND       PRES   REMARKS
FRISCO         LGT RAIN  42  39  89 NW17G36   29.54R
SWANQUARTER      N/A     37 N/A N/A W13G32    29.59

$$

NCZ095-097-098-100-101-080800-
SOUTHERN COAST

CITY           SKY/WX    TMP DP  RH WIND       PRES   REMARKS
BEAUFORT       PTCLDY    41  29  62 NW23G37   29.66R
CEDAR ISLAND     N/A     41 N/A N/A NW35G47   29.68
JACKSONVILLE   CLEAR     39  24  55 NW18      29.72S
PINEY ISLAND   NOT AVBL
WILMINGTON     PTCLDY    41  25  53 NW12      29.77S


$$

NCZ011>013-027>030-043-044-078>080-089-090>093-098-080800-
COASTAL PLAIN

CITY           SKY/WX    TMP DP  RH WIND       PRES   REMARKS
AHOSKIE        CLOUDY    39  21  49 N7        29.72F
CLINTON        PTCLDY    38  27  62 NW5       29.80S
ELIZABETHTOWN  CLEAR     40  26  57 NW8       29.81S
GOLDSBORO      CLEAR     39  23  52 NW10      29.75S
GREENVILLE     PTCLDY    39  23  52 NW9       29.76S
HAVELOCK       CLOUDY    40  26  57 NW22G31   29.68S
KENANSVILLE      N/A     39  23  53 NW6       29.78S
KINSTON        CLOUDY    39  24  55 NW12      29.75F
NEW BERN       CLOUDY    40  25  55 NW15G25   29.71R
RICHLANDS      CLEAR     39  21  48 NW7       29.75S
ROCKY MOUNT    PTCLDY    39  21  48 NW12      29.77S
WASHINGTON     CLOUDY    39  25  56 NW9       29.70S
WHITEVILLE     CLEAR     39  28  63 W3        29.83R

$$

AMZ130-135-150-152-154-156-158-170-250-252-270-ANZ085-086-088-633-658-670-080800-
MARINE OBSERVATIONS

STATION/POSITION TIME  TEMP    WIND        PRES    WAVE   SWELL
                       AIR SEA DIR/SP/G            HT/PER HT/PER
                 (UTC) (F)     (DEG/KT/KT) (MB)    (FT/S) (FT/S)
CHESAPEAKE LIGHT 0600   42     360/ 33/ 37 1001.9
64 E VA BEACH    0650   49 53   10/ 35/ 43  996.6   18/11  15/11
DUCK             0600   42 53  350/ 31/ 36  999.3
2 E DUCK         0611      45                N/A    13/12   8/12
OREGON INLET     0600   42 45  330/ 22/ 30  999.1
13E OREGON INLT  0600      47                N/A    21/11  15/11
HATTERAS CG      0600   43 46  330/ 32/ 42  999.1
DIAMOND BUOY     0650   47 70  330/ 39/ 47  997.8   17/12  13/12
CAPE LOOKOUT     NOT AVBL
BEAUFORT LAB     0600   40 45  340/ 15/ 25 1002.5
30 SE NEW RVR IN 0608   46 59              1002.0
30 SE NEW RVR IN 0625      58                N/A    11/ 7   7/12
27 SE WRIGHTSVLE 0608   45 59  360/ 27/ 35 1004.0
5 SE WRIGHTSVLE  0608   44 52  320/ 21/ 27 1007.7
225 S CAPE HAT   0650   58 69  300/ 41/ 51   N/A    27/12
41 SE CHARLESTON 0650   53 66  320/ 19/ 23 1012.2    8/ 6   3/10

$$




USA.gov is the U.S. government's official web portal to all federal, state and local government web resources and services.